Date,TemperatureHighF,TemperatureAvgF,TemperatureLowF,DewpointHighF,DewpointAvgF,DewpointLowF,HumidityHigh,HumidityAvg,HumidityLow,PressureMaxIn,PressureMinIn,WindSpeedMaxMPH,WindSpeedAvgMPH,GustSpeedMaxMPH,PrecipitationSumIn
2013-1-1,49,43,37,46,38,35,95,84,66,30.05,29.50,4,0,10,0.15
2013-1-2,52,46,38,50,44,35,96,91,82,30.33,30.05,6,0,7,0.01
2013-1-3,54,52,50,50,49,47,97,91,85,30.62,30.33,3,0,7,0.00
2013-1-4,51,50,47,47,45,43,93,85,77,30.65,30.60,4,0,9,0.00
2013-1-5,52,49,45,50,47,44,99,92,84,30.60,30.51,4,0,8,0.00
2013-1-6,48,45,44,46,44,43,99,97,91,30.52,30.39,2,0,4,0.00
2013-1-7,49,47,45,46,45,44,98,93,88,30.39,30.25,3,0,8,0.00
2013-1-8,54,50,47,48,46,44,97,87,77,30.27,30.18,2,0,7,0.02
2013-1-9,50,44,32,49,42,32,99,93,70,30.18,30.07,2,0,6,0.09
2013-1-10,40,36,31,37,35,31,99,95,88,30.07,29.92,3,0,6,0.01
2013-1-11,46,37,31,40,35,31,99,94,76,30.08,29.96,1,0,3,0.00
2013-1-12,41,39,34,38,34,28,99,84,58,29.97,29.83,4,1,12,0.04
2013-1-13,40,36,32,36,30,27,89,76,67,30.14,29.94,6,0,12,0.00
2013-1-14,38,34,32,36,32,28,98,91,83,30.10,29.63,4,0,10,0.15
2013-1-15,38,34,26,33,30,25,96,88,78,29.87,29.62,4,0,14,0.00
2013-1-16,36,29,24,30,27,23,99,94,78,30.02,29.83,3,0,4,0.00
2013-1-17,43,31,22,34,27,22,99,85,59,30.07,29.87,2,0,4,0.01
2013-1-18,35,31,28,30,28,26,95,87,73,29.87,29.41,4,1,11,0.00
2013-1-19,34,32,30,32,29,26,96,88,78,29.47,29.38,5,0,14,0.00
2013-1-20,33,31,30,31,29,26,97,90,80,29.45,29.27,5,0,11,0.00
2013-1-21,39,31,25,31,29,24,97,91,69,29.49,29.25,0,0,0,0.00
2013-1-22,37,31,23,34,29,22,99,92,80,29.67,29.49,6,0,13,0.19
2013-1-23,38,36,35,33,31,30,87,83,76,29.80,29.67,0,0,6,0.05
2013-1-24,36,34,33,32,30,26,95,82,67,30.14,29.80,0,0,1,0.00
2013-1-25,38,35,32,35,30,27,93,82,73,30.12,29.56,4,0,12,0.02
2013-1-26,49,42,36,44,39,34,99,88,69,29.83,29.54,8,1,17,0.11
2013-1-27,51,47,40,49,41,33,97,81,52,29.62,29.27,7,1,18,0.30
2013-1-28,52,44,37,50,40,34,98,86,75,29.82,29.52,0,0,0,0.25
2013-1-29,57,54,49,54,51,46,97,90,79,29.65,29.55,0,0,0,0.04
2013-1-30,55,50,45,53,43,36,97,77,51,30.05,29.51,0,0,0,0.18
2013-1-31,53,49,45,46,41,37,93,74,58,30.05,29.80,0,0,0,0.06